Lid_Strength_Index
13 12 11 12 12 11 13 12 15 15 15 13 11 10 9 8 8 9 9 8 8 9 9 9 9 9 10 9 8 7 7 8 8 8 7 7 7 7 7 7 7 7 7 7
15 12 11 14 12 11 11 12 12 13 14 9 9 8 8 8 7 9 8 9 9 10 10 10 11 11 10 9 9 9 9 9 9 8 8 8 8 7 7 7 7 6 6 6
18 13 14 17 13 13 13 12 12 15 12 9 10 9 8 8 7 8 8 8 10 10 11 11 11 10 11 10 10 10 10 9 9 9 9 9 8 8 8 8 8 8 7 7
17 15 21 14 10 10 12 11 11 11 10 9 9 9 7 6 7 9 9 10 11 11 11 11 11 11 11 11 11 10 11 10 10 10 10 9 9 9 9 9 8 8 7 7
18 18 15 13 11 12 12 13 10 10 10 10 10 9 11 9 9 9 10 11 11 11 11 11 11 11 12 12 11 11 12 11 11 10 10 10 9 8 9 9 8 6 6 7
16 19 21 14 10 8 8 16 9 9 10 9 8 13 12 10 10 11 10 10 10 10 11 11 11 12 13 12 12 12 12 12 11 9 9 9 8 9 7 7 7 7 8 9
16 18 15 10 8 7 16 14 8 8 9 10 13 11 11 10 10 10 10 10 11 11 12 12 13 13 13 13 12 11 11 11 11 10 10 9 9 8 9 9 9 9 10 11
16 17 19 8 9 12 11 8 8 10 10 11 11 10 10 10 10 10 10 10 11 13 13 13 13 13 13 13 12 11 11 12 12 11 10 9 9 10 10 12 12 12 13 13
14 14 9 8 10 9 8 10 10 10 10 10 11 11 11 11 11 10 11 12 11 12 12 12 12 13 13 13 12 11 12 13 11 10 10 10 10 11 12 13 14 13 13 14
12 11 10 10 9 8 8 9 9 8 9 10 11 11 12 12 12 12 11 12 11 12 13 13 13 12 13 12 12 12 13 13 12 11 11 10 10 11 12 13 15 15 15 15
12 11 10 10 9 9 9 9 9 9 10 11 11 12 12 12 12 12 12 12 12 12 13 13 13 13 13 12 12 13 13 13 12 12 12 11 11 11 12 13 14 15 15 14
13 10 10 11 10 9 11 11 10 11 12 11 11 12 12 13 13 13 13 13 13 13 13 13 13 13 13 13 13 13 14 14 14 13 13 13 12 12 12 13 13 14 14 13
10 9 10 10 9 9 11 11 11 11 11 12 11 12 12 13 12 11 13 13 13 13 13 14 14 14 13 13 13 13 15 14 13 12 13 14 13 14 14 13 13 13 13 13
9 9 11 10 12 10 10 10 10 11 11 11 11 11 12 12 12 13 13 13 13 13 13 13 13 14 13 13 13 13 14 12 13 14 14 14 14 14 14 15 15 14 13 13
9 9 10 10 10 10 10 11 11 12 12 12 11 12 12 13 13 13 13 13 13 13 13 13 13 13 12 12 12 12 13 13 13 13 13 14 14 14 14 15 15 15 15 15
9 9 10 10 11 10 11 11 12 12 12 12 12 11 12 12 12 13 13 13 14 14 13 13 13 12 12 12 12 13 13 11 12 13 14 14 14 15 15 15 16 16 16 16
10 11 10 11 11 11 11 10 11 11 11 11 11 11 12 12 12 13 14 14 13 13 13 13 13 12 11 12 13 13 13 13 13 15 15 15 16 16 16 16 16 17 17 16
8 9 9 9 10 10 10 9 10 10 10 10 10 11 12 13 13 14 14 14 14 14 14 13 13 12 12 12 13 14 14 14 14 15 15 16 16 16 17 17 17 17 17 16
7 8 8 9 9 8 8 9 9 9 9 10 11 12 11 12 12 13 14 14 15 15 15 14 12 13 13 12 13 14 14 14 15 15 15 15 16 16 16 17 17 17 17 17
7 7 8 8 7 8 9 9 8 9 10 10 11 11 12 12 13 14 14 15 15 16 14 14 14 14 13 12 13 14 14 15 15 15 15 16 16 17 17 16 16 16 16 16
7 7 8 8 8 8 8 9 9 10 10 10 11 12 12 13 13 14 16 16 15 14 13 13 14 14 13 14 14 15 15 16 16 16 16 17 17 17 17 17 16 16 16 16
8 8 8 8 8 9 9 9 9 10 10 10 10 11 12 13 14 14 14 15 14 12 14 14 14 13 13 13 14 15 15 15 16 17 16 17 17 17 17 17 16 16 17 16
8 8 8 8 9 9 9 9 9 10 10 10 11 11 12 14 14 15 15 13 14 13 14 14 14 14 14 14 15 15 15 16 18 19 20 19 20 19 18 18 17 17 17 17
9 8 9 9 9 9 11 11 10 10 10 11 11 11 12 14 14 14 13 12 13 13 14 14 14 14 14 15 15 16 16 16 19 20 20 19 22 21 22 20 19 18 17 17
8 9 9 10 11 11 11 11 11 11 11 11 11 11 12 13 14 13 13 13 13 13 14 14 14 14 15 15 16 16 16 17 20 20 19 20 21 21 21 21 20 19 17 17
9 9 10 10 11 11 11 11 12 12 12 12 12 12 12 12 12 12 13 13 13 14 15 15 15 15 15 15 15 16 16 16 16 18 20 20 20 19 19 19 18 17 17 16
10 10 11 12 12 11 12 11 11 12 12 12 12 12 12 12 12 12 12 14 14 14 14 15 15 14 15 15 15 15 16 16 16 16 16 18 18 18 18 18 18 16 16 16